[[{"header":{"parameterUnit":"m.s-1","parameterCategory":1,"la1":30.2991,"la2":30.254,"lo1":-89.0895,"lo2":-89.0444,"dy":0.0017,"dx":0.0017,"nx":28,"ny":28,"refTime":"2024-03-07T09:00:00:Z","depth":0,"parameterNumber":2,"parameterNumberName":"U-component_of_WINDS"},"data":[0,0,0,0,0,0,0,0,0,0,0,0,0,0,0,0,0,0,0,0,0,0,0,0,0,0,0,0,0,0,0,0,0,0,0,0,0,0,0,0,0,0,0,0,0,0,0,0,0,0,0,0,0,0,0,0,0,0,-5.4704,-5.4705,0,-5.4814,-5.4815,-5.4816,-5.4788,-5.4786,-5.4784,-5.4782,-5.489,-5.4895,-5.49,0,0,0,0,0,0,0,0,0,0,0,0,0,-5.4466,-5.447,-5.4704,-5.4705,-5.4706,-5.4814,-5.4815,-5.4817,-5.4788,-5.4786,-5.4783,-5.4781,-5.4889,-5.4894,-5.49,0,0,0,0,0,0,0,0,0,0,0,0,0,-5.4572,-5.4472,-5.4703,-5.4705,-5.4707,-5.4813,-5.4815,-5.4817,-5.4789,-5.4786,-5.4782,-5.4779,-5.4887,-5.4894,-5.4901,-5.5011,0,0,-5.4923,-5.4927,0,0,0,0,0,0,0,0,-5.4566,-5.4581,-5.4704,-5.4705,-5.4707,-5.4784,-5.4771,-5.4882,-5.479,-5.4758,-5.4782,-5.4778,-5.4857,-5.4867,-5.4894,-5.5016,-5.5021,-5.4924,-5.4929,-5.4932,-5.4934,0,0,0,0,0,0,0,-5.4559,-5.4576,-5.4747,-5.4705,-5.4708,-5.47,-5.4711,-5.4792,-5.4824,-5.476,-5.4758,-5.4772,-5.4857,-5.4887,-5.4897,-5.5023,-5.4924,-5.493,-5.4935,-5.4938,-5.524,-5.5244,0,0,0,0,0,0,-5.455,-5.457,-5.4744,-5.475,-5.4627,-5.4707,-5.4719,-5.4762,-5.4823,-5.4829,-5.4775,-5.477,-5.4876,-5.4888,-5.49,-5.5032,-5.4932,-5.4939,-5.4943,-5.5237,-5.5241,-5.5245,0,0,0,0,0,0,-5.4545,-5.4566,-5.4739,-5.466,-5.4681,-5.4714,-5.4763,-5.4766,-5.4796,-5.4834,-5.4839,-5.4799,-5.4874,-5.489,-5.4984,-5.5035,-5.4942,-5.4949,-5.5232,-5.5238,-5.5243,-5.5297,0,0,0,0,0,0,-5.4539,-5.4565,-5.4607,-5.4661,-5.4686,-5.4822,-5.4766,-5.4771,-5.4809,-5.4805,-5.4859,-5.4865,-5.4873,-5.4973,-5.4991,-5.5044,-5.4954,-5.5228,-5.5235,-5.5241,-5.5291,-5.5304,-5.5315,0,0,0,0,0,-5.453,-5.4617,-5.4609,-5.4631,-5.474,-5.4825,-5.4839,-5.4848,-5.4814,-5.4856,-5.4881,-5.4863,-5.5028,-5.4983,-5.5003,-5.5059,-5.5225,-5.5233,-5.5241,-5.5285,-5.5301,-5.5315,0,0,0,0,0,0,-5.4566,-5.4624,-5.4616,-5.4723,-5.477,-5.482,-5.4873,-5.4864,-5.492,-5.4913,-5.4921,-5.4933,-5.5029,-5.5054,-5.5003,-5.5169,-5.5121,-5.5134,-5.5148,-5.5164,-5.5175,-5.5165,-5.496,0,0,0,0,0,-5.4587,-5.4653,-5.4699,-5.4789,-5.4813,-5.484,-5.4877,-5.4881,-5.4928,-5.4947,-5.4979,-5.5025,-5.5087,-5.5127,-5.5187,-5.5296,-5.5306,-5.5344,-5.5356,-5.5366,-5.5375,-5.5434,-5.5451,-5.5272,-5.5272,-5.5272,0,0,-5.463,-5.467,-5.471,-5.4798,-5.4834,-5.49,-5.4856,-5.4928,-5.4977,-5.4958,-5.5048,-5.5073,-5.5125,-5.5227,-5.5274,-5.5251,-5.5428,-5.5376,-5.5384,-5.5388,-5.5444,-5.5461,-5.5476,-5.5277,-5.5276,-5.5275,0,0,-5.4741,-5.4779,-5.4857,-5.4895,-5.4952,-5.4969,-5.4989,-5.5041,-5.5057,-5.5149,-5.5136,-5.5194,-5.5302,-5.5339,-5.5372,-5.5501,-5.5485,-5.552,-5.5581,-5.5638,-5.5652,-5.5664,-5.5708,-5.5723,-5.553,-5.553,-5.553,0,-5.4786,-5.4886,-5.4898,-5.4972,-5.501,-5.4999,-5.5078,-5.5114,-5.5186,-5.5212,-5.5187,-5.5322,-5.5356,-5.5466,-5.5497,-5.5526,-5.5546,-5.5511,-5.5649,-5.5662,-5.5674,-5.5715,-5.5732,-5.5534,-5.5534,-5.5533,-5.5533,0,-5.4938,-5.5008,-5.5065,-5.5137,-5.5182,-5.5258,-5.5281,-5.5325,-5.5326,-5.5346,-5.5439,-5.5481,-5.5548,-5.5576,-5.5576,-5.5686,-5.567,-5.5647,-5.5599,-5.5694,-5.5733,-5.5749,-5.5539,-5.5538,-5.5537,-5.5536,0,0,-5.507,-5.515,-5.517,-5.5203,-5.5266,-5.5319,-5.5396,-5.5463,-5.55,-5.5552,-5.5614,-5.5707,-5.5686,-5.5724,-5.5729,-5.578,-5.5877,-5.5751,-5.5752,-5.577,-5.5998,-5.6012,-5.603,-5.5869,-5.5873,-5.5875,-5.5993,0,-5.5184,-5.5318,-5.5332,-5.5451,-5.5515,-5.5508,-5.5573,-5.5619,-5.5641,-5.5698,-5.5722,-5.5786,-5.5756,-5.5778,-5.5829,-5.5854,-5.5922,-5.5847,-5.5925,-5.5927,-5.5908,-5.6051,-5.6066,-5.6175,-5.6008,-5.6011,-5.6013,0,-5.5333,-5.5391,-5.5517,-5.5571,-5.5599,-5.5658,-5.5721,-5.5777,-5.5828,-5.5841,-5.5885,-5.5884,-5.5961,-5.5914,-5.6019,-5.5968,-5.6001,-5.6019,-5.6024,-5.6028,-5.5973,-5.6055,-5.621,-5.6225,-5.6038,-5.6036,-5.6034,0,-5.5413,-5.5522,-5.5612,-5.564,-5.5707,-5.5749,-5.5778,-5.5827,-5.5867,-5.5923,-5.5948,-5.6012,-5.6046,-5.6096,-5.6112,-5.6076,-5.6216,-5.617,-5.6227,-5.6226,-5.6252,-5.625,-5.641,-5.6281,-5.6281,-5.628,-5.628,0,-5.5536,-5.5613,-5.5648,-5.5703,-5.5788,-5.5805,-5.5889,-5.5917,-5.5961,-5.6019,-5.6018,-5.6073,-5.6093,-5.6152,-5.6165,-5.625,-5.6266,-5.6277,-5.6278,-5.6274,-5.6273,-5.6293,-5.6284,-5.6285,-5.6284,-5.6283,-5.6282,0,-5.5637,-5.5665,-5.5761,-5.5818,-5.5834,-5.5895,-5.5942,-5.5995,-5.6018,-5.6092,-5.6111,-5.6146,-5.6215,-5.6238,-5.6321,-5.633,-5.6427,-5.6425,-5.641,-5.6409,-5.6463,-5.6456,-5.6639,-5.6662,-5.6521,-5.6522,-5.6524,0,-5.5712,-5.5771,-5.5835,-5.5875,-5.5907,-5.5972,-5.6013,-5.6033,-5.6076,-5.6141,-5.6185,-5.6254,-5.6309,-5.642,-5.6452,-5.6515,-5.6512,-5.6572,-5.6521,-5.6515,-5.6509,-5.6503,-5.6508,-5.6579,-5.6581,-5.6582,-5.6583,0,-5.584,-5.5852,-5.5912,-5.5979,-5.6029,-5.6081,-5.6132,-5.6165,-5.6192,-5.6241,-5.6312,-5.6355,-5.6442,-5.6509,-5.6575,-5.6604,-5.6597,-5.66,-5.6616,-5.661,-5.6597,-5.6602,-5.6432,-5.6594,-5.6593,-5.6592,-5.6592,-5.6591,-5.5928,-5.598,-5.6034,-5.6101,-5.6142,-5.619,-5.6242,-5.6273,-5.6333,-5.6405,-5.6414,-5.649,-5.6541,-5.6629,-5.6662,-5.6721,-5.6704,-5.6728,-5.6733,-5.6737,-5.674,-5.6592,-5.6734,-5.6734,-5.6733,-5.6733,-5.6733,0,-5.6054,-5.6089,-5.6151,-5.6223,-5.6277,-5.627,-5.6326,-5.6371,-5.6438,-5.6488,-5.6543,-5.6625,-5.6692,-5.6731,-5.6797,-5.6837,-5.6836,-5.6853,-5.6848,-5.6855,-5.6753,-5.6731,-5.6853,-5.6853,-5.6853,-5.6853,-5.6853,-5.6853,-5.6125,-5.6212,-5.623,-5.6337,-5.6372,-5.6447,-5.648,-5.6524,-5.6563,-5.6655,-5.6711,-5.6737,-5.6782,-5.6852,-5.6913,-5.6923,-5.6945,-5.6964,-5.6972,-5.6875,-5.6862,-5.685,-5.6829,-5.697,-5.697,-5.7068,-5.7069,-5.707]},{"header":{"parameterUnit":"m.s-1","parameterCategory":1,"la1":30.2991,"la2":30.254,"lo1":-89.0895,"lo2":-89.0444,"dy":0.0017,"dx":0.0017,"nx":28,"ny":28,"refTime":"2024-03-07T09:00:00:Z","depth":0,"parameterNumber":3,"parameterNumberName":"V-component_of_WINDS"},"data":[0,0,0,0,0,0,0,0,0,0,0,0,0,0,0,0,0,0,0,0,0,0,0,0,0,0,0,0,0,0,0,0,0,0,0,0,0,0,0,0,0,0,0,0,0,0,0,0,0,0,0,0,0,0,0,0,0,0,1.8004,1.8005,0,1.8099,1.81,1.8101,1.8119,1.8119,1.8118,1.8117,1.8215,1.8219,1.8222,0,0,0,0,0,0,0,0,0,0,0,0,0,1.784,1.7843,1.8004,1.8005,1.8006,1.8099,1.81,1.8102,1.812,1.8119,1.8118,1.8117,1.8214,1.8218,1.8222,0,0,0,0,0,0,0,0,0,0,0,0,0,1.7921,1.7844,1.8003,1.8026,1.8029,1.8099,1.81,1.8102,1.812,1.8119,1.8118,1.8116,1.8213,1.8218,1.8223,1.8276,0,0,1.8238,1.824,0,0,0,0,0,0,0,0,1.7916,1.7927,1.8022,1.8025,1.8028,1.8096,1.8079,1.816,1.812,1.8085,1.8117,1.8116,1.8177,1.8185,1.8205,1.8281,1.8285,1.8238,1.8241,1.8244,1.8245,0,0,0,0,0,0,0,1.7911,1.7923,1.8041,1.8023,1.8027,1.8033,1.8043,1.8094,1.8136,1.8088,1.809,1.8101,1.8178,1.82,1.8207,1.8286,1.8238,1.8243,1.8246,1.8248,1.8415,1.8416,0,0,0,0,0,0,1.7901,1.7918,1.8038,1.8044,1.7968,1.8037,1.8048,1.8076,1.8136,1.8144,1.8102,1.8101,1.8192,1.8202,1.8211,1.828,1.8244,1.8248,1.8251,1.8414,1.8415,1.8417,0,0,0,0,0,0,1.7897,1.7911,1.8035,1.7982,1.7998,1.8041,1.8071,1.8078,1.81,1.8146,1.8154,1.8116,1.8192,1.8204,1.8261,1.8284,1.825,1.8255,1.8412,1.8414,1.8416,1.8417,0,0,0,0,0,0,1.7893,1.791,1.793,1.7982,1.8001,1.8082,1.8073,1.8081,1.8108,1.8109,1.8162,1.8169,1.8192,1.8253,1.8266,1.829,1.8259,1.841,1.8413,1.8416,1.8415,1.8419,1.8423,0,0,0,0,0,1.7887,1.7926,1.7931,1.7945,1.8026,1.8083,1.8094,1.8119,1.811,1.8131,1.8162,1.8168,1.8279,1.8259,1.8273,1.8299,1.8409,1.8412,1.8415,1.8414,1.8418,1.8422,0,0,0,0,0,0,1.7874,1.7933,1.7939,1.7996,1.8035,1.8086,1.8113,1.8122,1.8164,1.8163,1.8192,1.8204,1.826,1.8285,1.8262,1.8356,1.8344,1.835,1.8338,1.8342,1.8346,1.8339,1.8263,0,0,0,0,0,1.7878,1.7919,1.7968,1.8014,1.8033,1.807,1.8095,1.8112,1.8153,1.8169,1.8203,1.8243,1.8288,1.8316,1.8359,1.8419,1.8432,1.8444,1.8448,1.8451,1.8456,1.8493,1.8499,1.8428,1.8428,1.8428,0,0,1.7887,1.7924,1.7948,1.8012,1.8044,1.8087,1.8083,1.8128,1.816,1.8176,1.8232,1.8259,1.8306,1.8365,1.8393,1.8388,1.8479,1.8455,1.8457,1.8461,1.8497,1.8504,1.851,1.843,1.843,1.8429,0,0,1.7925,1.7956,1.7999,1.8031,1.808,1.8105,1.8115,1.8166,1.8185,1.8242,1.8255,1.8295,1.837,1.8404,1.8431,1.8485,1.8493,1.8498,1.8517,1.8552,1.8558,1.8563,1.8585,1.8592,1.8503,1.8503,1.8503,0,1.7929,1.7994,1.802,1.8065,1.8094,1.8111,1.8156,1.8186,1.8246,1.8267,1.826,1.8357,1.8389,1.8459,1.8472,1.8493,1.8507,1.8492,1.8555,1.8561,1.8566,1.8587,1.8595,1.8504,1.8504,1.8504,1.8504,0,1.7999,1.8043,1.8072,1.8131,1.8163,1.8208,1.8242,1.8272,1.8286,1.8312,1.8372,1.8412,1.8465,1.8482,1.8496,1.8555,1.855,1.8549,1.8537,1.8573,1.8593,1.8601,1.8504,1.8504,1.8504,1.8504,0,0,1.803,1.8105,1.8115,1.8143,1.8199,1.8235,1.8282,1.8334,1.836,1.8402,1.8443,1.8508,1.8508,1.8539,1.8557,1.8588,1.8632,1.8583,1.8585,1.8593,1.8702,1.8704,1.8712,1.8637,1.8639,1.864,1.8699,0,1.8076,1.816,1.8186,1.8256,1.8299,1.8317,1.8358,1.8398,1.8424,1.8466,1.8495,1.8541,1.8537,1.8556,1.8587,1.8619,1.8654,1.8615,1.8678,1.868,1.8667,1.8723,1.8724,1.8777,1.8707,1.8708,1.8709,0,1.8141,1.8185,1.826,1.8313,1.8333,1.8369,1.8421,1.8459,1.8506,1.8523,1.8559,1.8575,1.8626,1.8611,1.8684,1.8657,1.8684,1.8704,1.8707,1.8715,1.8697,1.8734,1.8795,1.8803,1.8721,1.872,1.8719,0,1.816,1.8237,1.8293,1.8316,1.838,1.8405,1.8433,1.8478,1.8509,1.8555,1.8576,1.8626,1.8654,1.8694,1.8724,1.871,1.8795,1.8782,1.8813,1.8812,1.883,1.8829,1.8898,1.8845,1.8845,1.8845,1.8844,0,1.821,1.8255,1.8303,1.8337,1.839,1.842,1.8472,1.85,1.8541,1.8583,1.8601,1.864,1.8676,1.8721,1.8745,1.8803,1.8815,1.8831,1.8837,1.8831,1.8829,1.885,1.8848,1.8847,1.8846,1.8846,1.8845,0,1.8239,1.8273,1.8335,1.8391,1.8406,1.8442,1.8491,1.8526,1.8553,1.8606,1.862,1.8664,1.8717,1.8751,1.8818,1.8835,1.8899,1.8903,1.8884,1.8887,1.8917,1.8914,1.9003,1.9017,1.8952,1.8953,1.8953,0,1.827,1.8306,1.8366,1.8395,1.8423,1.8469,1.8502,1.8534,1.8567,1.8624,1.8653,1.8708,1.8753,1.8838,1.8876,1.8929,1.8935,1.8963,1.8943,1.8937,1.8939,1.8937,1.8942,1.8966,1.8967,1.8967,1.8968,0,1.8321,1.8337,1.8382,1.8434,1.8472,1.8515,1.8558,1.8581,1.862,1.8657,1.8712,1.8747,1.8817,1.8872,1.8929,1.8959,1.8971,1.8974,1.8984,1.8978,1.8967,1.8976,1.8894,1.8972,1.8971,1.8971,1.8971,1.8971,1.8354,1.8388,1.8436,1.8487,1.8523,1.8563,1.86,1.8633,1.8679,1.8739,1.8755,1.8813,1.8862,1.8939,1.897,1.9017,1.9014,1.9028,1.9032,1.9036,1.9038,1.8958,1.9027,1.9027,1.9027,1.9027,1.9027,0,1.8408,1.8441,1.8487,1.8547,1.8588,1.8596,1.8644,1.8678,1.8729,1.8773,1.8818,1.8883,1.8937,1.8981,1.9037,1.9066,1.9074,1.908,1.9079,1.9087,1.9036,1.9023,1.9074,1.9074,1.9074,1.9074,1.9074,1.9074,1.8441,1.85,1.8522,1.86,1.8632,1.8689,1.8717,1.8755,1.8791,1.8862,1.8907,1.8935,1.898,1.904,1.9091,1.9103,1.9123,1.9129,1.9142,1.9095,1.909,1.9085,1.9072,1.9133,1.9133,1.9189,1.919,1.919]}]]